| time (UTC) | temp F | wind direction | speed MPH | gust MPH | rain 1hr in | rain 24hr in | rain mn in | humidity % | barometer mb |
| 20260906101502 | 94 | 317 | 1.0 | 6.0 | 0.00 | 0.00 | 0.00 | 37 | 1016.6 |
| 20260906100019 | 94 | 67 | 1.0 | 4.0 | 0.00 | 0.00 | 0.00 | 38 | 1016.5 |
| 20260906094533 | 93 | 89 | 3.0 | 6.0 | 0.00 | 0.00 | 0.00 | 37 | 1016.5 |
| 20260906093045 | 92 | 62 | 2.0 | 6.0 | 0.00 | 0.00 | 0.00 | 37 | 1016.7 |
| 20260906091559 | 93 | 86 | 2.0 | 8.0 | 0.00 | 0.00 | 0.00 | 39 | 1016.7 |
| 20260906090012 | 92 | 21 | 2.0 | 7.0 | 0.00 | 0.00 | 0.00 | 38 | 1016.9 |
| 20260906084531 | 92 | 67 | 2.0 | 8.0 | 0.00 | 0.00 | 0.00 | 39 | 1016.9 |
| 20260906083040 | 92 | 98 | 1.0 | 6.0 | 0.00 | 0.00 | 0.00 | 32 | 1016.9 |
| 20260906081557 | 91 | 80 | 1.0 | 6.0 | 0.00 | 0.00 | 0.00 | 33 | 1016.9 |
| 20260906080004 | 90 | 184 | 0.0 | 3.0 | 0.00 | 0.00 | 0.00 | 33 | 1016.9 |
| 20260906074520 | 91 | 107 | 1.0 | 5.0 | 0.00 | 0.00 | 0.00 | 33 | 1016.9 |
| 20260906073029 | 89 | 94 | 0.0 | 4.0 | 0.00 | 0.00 | 0.00 | 34 | 1016.8 |
| 20260906071545 | 88 | 84 | 1.0 | 4.0 | 0.00 | 0.00 | 0.00 | 34 | 1016.7 |
| 20260906070059 | 87 | 70 | 1.0 | 4.0 | 0.00 | 0.00 | 0.00 | 35 | 1016.7 |
| 20260906064512 | 86 | 95 | 0.0 | 2.0 | 0.00 | 0.00 | 0.00 | 35 | 1016.5 |
| 20260906063025 | 86 | 46 | 1.0 | 3.0 | 0.00 | 0.00 | 0.00 | 36 | 1016.4 |
| 20260906061538 | 86 | 60 | 0.0 | 2.0 | 0.00 | 0.00 | 0.00 | 37 | 1016.2 |
| 20260906060052 | 86 | 286 | 0.0 | 0.0 | 0.00 | 0.00 | 0.00 | 37 | 1016.1 |
| 20260906054504 | 83 | 286 | 0.0 | 0.0 | 0.00 | 0.00 | 0.00 | 40 | 1016.0 |
| 20260906053022 | 81 | 286 | 0.0 | 0.0 | 0.00 | 0.00 | 0.00 | 40 | 1016.0 |
| 20260906051534 | 79 | 286 | 0.0 | 0.0 | 0.00 | 0.00 | 0.00 | 42 | 1015.9 |
| 20260906050052 | 76 | 285 | 0.0 | 0.0 | 0.00 | 0.00 | 0.00 | 43 | 1016.0 |
| 20260906044502 | 73 | 286 | 0.0 | 1.0 | 0.00 | 0.00 | 0.00 | 45 | 1016.0 |
| 20260906043018 | 72 | 285 | 0.0 | 0.0 | 0.00 | 0.00 | 0.00 | 46 | 1015.8 |
| 20260906041536 | 72 | 285 | 0.0 | 1.0 | 0.00 | 0.00 | 0.00 | 45 | 1015.5 |
| 20260906040049 | 73 | 286 | 0.0 | 1.0 | 0.00 | 0.00 | 0.00 | 44 | 1015.5 |
| 20260906034600 | 72 | 285 | 0.0 | 1.0 | 0.00 | 0.00 | 0.00 | 44 | 1015.4 |
| 20260906033033 | 71 | 285 | 0.0 | 1.0 | 0.00 | 0.00 | 0.00 | 46 | 1015.3 |
| 20260906031531 | 71 | 285 | 0.0 | 0.0 | 0.00 | 0.00 | 0.00 | 46 | 1015.3 |
| 20260906030053 | 71 | 285 | 0.0 | 0.0 | 0.00 | 0.00 | 0.00 | 46 | 1015.2 |
| 20260906024508 | 71 | 286 | 0.0 | 1.0 | 0.00 | 0.00 | 0.00 | 47 | 1014.9 |
| 20260906023024 | 71 | 286 | 0.0 | 1.0 | 0.00 | 0.00 | 0.00 | 46 | 1014.9 |
| 20260906021539 | 71 | 285 | 0.0 | 0.0 | 0.00 | 0.00 | 0.00 | 46 | 1015.0 |
| 20260906014508 | 71 | 286 | 0.0 | 1.0 | 0.00 | 0.00 | 0.00 | 46 | 1015.0 |
| 20260906013025 | 72 | 285 | 0.0 | 1.0 | 0.00 | 0.00 | 0.00 | 46 | 1015.1 |
| 20260906011544 | 72 | 285 | 0.0 | 1.0 | 0.00 | 0.00 | 0.00 | 46 | 1015.2 |
| 20260906010059 | 72 | 285 | 0.0 | 0.0 | 0.00 | 0.00 | 0.00 | 45 | 1015.2 |
| 20260906004513 | 72 | 285 | 0.0 | 1.0 | 0.00 | 0.00 | 0.00 | 47 | 1015.2 |
| 20260906003012 | 72 | 285 | 0.0 | 0.0 | 0.00 | 0.00 | 0.00 | 47 | 1015.2 |
| 20260906001529 | 72 | 285 | 0.0 | 1.0 | 0.00 | 0.00 | 0.00 | 46 | 1015.3 |
| 20260906000047 | 73 | 286 | 0.0 | 1.0 | 0.00 | 0.00 | 0.00 | 45 | 1015.2 |
| 20260905234603 | 74 | 285 | 0.0 | 0.0 | 0.00 | 0.00 | 0.00 | 44 | 1015.3 |
| 20260905233014 | 74 | 286 | 0.0 | 1.0 | 0.00 | 0.00 | 0.00 | 44 | 1015.4 |
| 20260905231551 | 74 | 285 | 0.0 | 1.0 | 0.00 | 0.00 | 0.00 | 43 | 1015.6 |
| 20260905230005 | 74 | 285 | 1.0 | 2.0 | 0.00 | 0.00 | 0.00 | 42 | 1015.8 |
| 20260905224532 | 74 | 285 | 0.0 | 1.0 | 0.00 | 0.00 | 0.00 | 42 | 1015.9 |
| 20260905223039 | 74 | 285 | 0.0 | 1.0 | 0.00 | 0.00 | 0.00 | 42 | 1015.9 |
| 20260905221602 | 75 | 285 | 0.0 | 0.0 | 0.00 | 0.00 | 0.00 | 42 | 1016.0 |
| 20260905220010 | 76 | 285 | 0.0 | 2.0 | 0.00 | 0.00 | 0.00 | 41 | 1015.9 |
| 20260905214528 | 76 | 306 | 0.0 | 3.0 | 0.00 | 0.00 | 0.00 | 40 | 1015.8 |
| 20260905213050 | 77 | 306 | 1.0 | 3.0 | 0.00 | 0.00 | 0.00 | 41 | 1016.0 |
| 20260905211502 | 77 | 296 | 0.0 | 0.0 | 0.00 | 0.00 | 0.00 | 40 | 1016.0 |
| 20260905210043 | 79 | 296 | 0.0 | 1.0 | 0.00 | 0.00 | 0.00 | 38 | 1016.0 |
| 20260905204558 | 79 | 304 | 0.0 | 3.0 | 0.00 | 0.00 | 0.00 | 39 | 1016.0 |
| 20260905203004 | 78 | 176 | 0.0 | 1.0 | 0.00 | 0.00 | 0.00 | 40 | 1016.0 |
| 20260905201516 | 79 | 176 | 0.0 | 0.0 | 0.00 | 0.00 | 0.00 | 39 | 1015.8 |
| 20260905200011 | 81 | 176 | 0.0 | 3.0 | 0.00 | 0.00 | 0.00 | 38 | 1015.9 |
| 20260905194513 | 81 | 121 | 0.0 | 2.0 | 0.00 | 0.00 | 0.00 | 38 | 1016.0 |
| 20260905193028 | 81 | 295 | 1.0 | 4.0 | 0.00 | 0.00 | 0.00 | 37 | 1016.0 |
| 20260905191534 | 81 | 316 | 2.0 | 4.0 | 0.00 | 0.00 | 0.00 | 38 | 1015.9 |
| 20260905190047 | 82 | 283 | 1.0 | 4.0 | 0.00 | 0.00 | 0.00 | 38 | 1016.0 |
| 20260905184602 | 82 | 250 | 1.0 | 5.0 | 0.00 | 0.00 | 0.00 | 38 | 1016.0 |
| 20260905183009 | 82 | 236 | 0.0 | 3.0 | 0.00 | 0.00 | 0.00 | 38 | 1015.9 |
| 20260905181523 | 82 | 313 | 1.0 | 6.0 | 0.00 | 0.00 | 0.00 | 38 | 1015.7 |
| 20260905180032 | 82 | 264 | 0.0 | 4.0 | 0.00 | 0.00 | 0.00 | 38 | 1015.5 |
| 20260905174553 | 83 | 240 | 2.0 | 4.0 | 0.00 | 0.00 | 0.00 | 38 | 1015.5 |
| 20260905173100 | 83 | 298 | 1.0 | 5.0 | 0.00 | 0.00 | 0.00 | 38 | 1015.4 |
| 20260905171518 | 84 | 202 | 3.0 | 8.0 | 0.00 | 0.00 | 0.00 | 38 | 1015.2 |
| 20260905170022 | 84 | 46 | 1.0 | 7.0 | 0.00 | 0.00 | 0.00 | 37 | 1015.1 |
| 20260905164537 | 85 | 238 | 2.0 | 6.0 | 0.00 | 0.00 | 0.00 | 37 | 1015.1 |
| 20260905163016 | 87 | 151 | 2.0 | 8.0 | 0.00 | 0.00 | 0.00 | 35 | 1015.2 |
| 20260905161528 | 88 | 251 | 3.0 | 8.0 | 0.00 | 0.00 | 0.00 | 34 | 1015.3 |
| 20260905160109 | 88 | 220 | 4.0 | 10.0 | 0.00 | 0.00 | 0.00 | 33 | 1015.2 |
| 20260905154559 | 88 | 153 | 3.0 | 10.0 | 0.00 | 0.00 | 0.00 | 32 | 1015.3 |
| 20260905153014 | 89 | 180 | 5.0 | 11.0 | 0.00 | 0.00 | 0.00 | 32 | 1015.3 |
| 20260905151518 | 89 | 132 | 3.0 | 12.0 | 0.00 | 0.00 | 0.00 | 32 | 1015.3 |
| 20260905150030 | 89 | 283 | 3.0 | 11.0 | 0.00 | 0.00 | 0.00 | 32 | 1015.2 |
| 20260905144543 | 90 | 203 | 6.0 | 10.0 | 0.00 | 0.00 | 0.00 | 33 | 1015.2 |
| 20260905143052 | 89 | 223 | 6.0 | 11.0 | 0.00 | 0.00 | 0.00 | 34 | 1015.1 |
| 20260905141503 | 89 | 174 | 5.0 | 15.0 | 0.00 | 0.00 | 0.00 | 34 | 1015.0 |
| 20260905140017 | 89 | 34 | 5.0 | 14.0 | 0.00 | 0.00 | 0.00 | 34 | 1015.1 |
| 20260905134536 | 89 | 228 | 5.0 | 10.0 | 0.00 | 0.00 | 0.00 | 34 | 1015.2 |
| 20260905133030 | 90 | 235 | 5.0 | 13.0 | 0.00 | 0.00 | 0.00 | 34 | 1015.2 |
| 20260905131541 | 89 | 201 | 5.0 | 13.0 | 0.00 | 0.00 | 0.00 | 34 | 1015.4 |
| 20260905130033 | 90 | 129 | 3.0 | 12.0 | 0.00 | 0.00 | 0.00 | 34 | 1015.3 |
| 20260905124517 | 89 | 98 | 4.0 | 12.0 | 0.00 | 0.00 | 0.00 | 34 | 1015.5 |
| 20260905123020 | 89 | 165 | 6.0 | 14.0 | 0.00 | 0.00 | 0.00 | 34 | 1015.5 |
| 20260905121534 | 89 | 285 | 5.0 | 15.0 | 0.00 | 0.00 | 0.00 | 36 | 1015.6 |
| 20260905120055 | 89 | 150 | 5.0 | 13.0 | 0.00 | 0.00 | 0.00 | 36 | 1015.8 |
| 20260905114559 | 89 | 250 | 5.0 | 13.0 | 0.00 | 0.00 | 0.00 | 36 | 1015.8 |
| 20260905113011 | 89 | 246 | 6.0 | 14.0 | 0.00 | 0.00 | 0.00 | 35 | 1015.9 |
| 20260905111522 | 89 | 328 | 4.0 | 14.0 | 0.00 | 0.00 | 0.00 | 36 | 1015.9 |
| 20260905110036 | 89 | 245 | 6.0 | 14.0 | 0.00 | 0.00 | 0.00 | 35 | 1016.1 |
| 20260905104552 | 88 | 302 | 5.0 | 18.0 | 0.00 | 0.00 | 0.00 | 35 | 1016.1 |
| 20260905103012 | 88 | 231 | 5.0 | 16.0 | 0.00 | 0.00 | 0.00 | 35 | 1016.2 |